Location: Sungai Bunut
(2.6333°N, 113.7333°E)
Time: 11:26:37
(UTC+00:00)

Transit 2A - Pass Details

Date: 06 December 2023
Orbit: 599 x 953 km, 66.7° (Epoch: 01 March)

Event Time Altitude Azimuth Distance (km) Brightness Sun altitude
Rises 07:27:43 0° 239° (WSW) 3,462 10.4 36.9°
Reaches altitude 10° 07:32:13 10° 270° (W) 2,432 9.6 36.0°
Maximum altitude 07:34:00 11° 289° (WNW) 2,288 9.1 35.6°
Drops below altitude 10° 07:35:44 10° 308° (NW) 2,351 8.9 35.2°
Sets 07:39:54 0° 341° (NNW) 3,175 9.1 34.3°
